Miscellaneous Local Product
Issued by NWS North Platte, NE

Home | Current Version | Previous Version | Text Only | Print | Product List | Glossary On
Versions: 1 2 3 4 5 6 7 8 9 10 11 12 13 14 15 16 17 18 19 20 21 22 23 24 25 26 27 28 29 30 31 32 33 34 35 36 37 38 39 40 41 42 43 44 45 46 47 48 49 50
766
AXUS43 KLBF 181410
MISLBF


WESTERN AND NORTH CENTRAL NEBRASKA HOURLY WEATHER ROUNDUP
NATIONAL WEATHER SERVICE NORTH PLATTE NE
900 AM CDT FRI AUG 18 2017

NOTE: "FAIR" INDICATES FEW OR NO CLOUDS BELOW 12,000 FEET WITH NO
SIGNIFICANT WEATHER AND/OR OBSTRUCTIONS TO VISIBILITY.

NOTE: STATIONS NOT REPORTING VARIABLES SUCH AS SKY/WEATHER OR
PRESSURE ARE PROVIDED BY RAWS AND APRS NETWORKS AND ARE NOT UNDER
NATIONAL WEATHER SERVICE QUALITY CONTROL.

...OBSERVATIONS IN AND NEAR THE EASTERN PANHANDLE OF NEBRASKA...

CITY           SKY/WX    TMP DP  RH WIND       PRES   REMARKS
PINE RIDGE     SUNNY     64  55  72 W5        30.07R
GORDON         FAIR      63  51  66 W7        30.07S
CHADRON        SUNNY     61  52  72 SW6       30.07S
ALLIANCE       SUNNY     58  53  84 W7        30.11R
SIDNEY         SUNNY     62  49  62 NW12      30.15R
CRESCENT LAKE    N/A     60  52  75 NW6         N/A
$$

...OBSERVATIONS IN NORTHERN NEBRASKA AND FAR SOUTHERN SOUTH DAKOTA...

CITY           SKY/WX    TMP DP  RH WIND       PRES   REMARKS
WINNER         FAIR      65  55  70 SW6       29.96R
VALENTINE      SUNNY     68  53  58 W8        30.00R
THEDFORD       CLOUDY    62  58  86 W5        30.04R
AINSWORTH      SUNNY     64  57  79 W9        30.01R
O`NEILL        SUNNY     65  61  88 W8        29.97R
ORD            SUNNY     64  59  83 CALM      29.98S
BROKEN BOW     SUNNY     67  58  72 CALM      30.01R
HALSEY           N/A     61  58  88 SW5         N/A
BUTTE            N/A     63  59  88 W8          N/A
CHAMBERS         N/A     69  62  80 S5          N/A
EWING            N/A     63  62  97 S3          N/A
$$

...OBSERVATIONS IN SOUTHWEST NEBRASKA AND FAR NORTHEAST COLORADO...

CITY           SKY/WX    TMP DP  RH WIND       PRES   REMARKS
HOLYOKE        FAIR      64  52  63 N8        30.11R
IMPERIAL       SUNNY     62  57  83 N8        30.08R
OGALLALA       SUNNY     61  57  88 SW3       30.08R
NORTH PLATTE   SUNNY     64  59  83 NW3       30.04R
MCCOOK         SUNNY     67  59  75 W3        30.02S
LEXINGTON      SUNNY     66  60  81 CALM      30.02S
STAPLETON        N/A     61  57  87 CALM        N/A
GOTHENBURG       N/A     63  54  73 W3          N/A
CALLAWAY         N/A     57  55  95 CALM        N/A
$$

...OBSERVATIONS IN CENTRAL LINCOLN COUNTY AREA...

CITY           SKY/WX    TMP DP  RH WIND       PRES   REMARKS
N.P. AIRPORT   SUNNY     64  59  83 NW3       30.04R
N.P. SOUTHEAST   N/A     64  57  78 CALM        N/A
N.P. HILLCREST   N/A     62  57  85 NW3         N/A
$$

...SOME OBSERVATIONS FROM AROUND THE REGION...

CITY           SKY/WX    TMP DP  RH WIND       PRES   REMARKS
DENVER         MOSUNNY   61  47  59 SW5       30.24R
LIMON          SUNNY     62  51  67 W8        30.23R
ASPEN          CLOUDY    55  37  50 SE5       30.41R
LARAMIE        SUNNY     54  40  59 CALM      30.34R
CASPER         SUNNY     58  45  62 SW7       30.21R
CHEYENNE       SUNNY     58  43  57 W9        30.26R
SCOTTSBLUFF    SUNNY     58  50  75 NW10      30.15R
GRAND ISLAND   SUNNY     69  61  75 W9        29.98S
OMAHA          MOSUNNY   73  62  68 NW6       29.94R
SIOUX FALLS    MOSUNNY   66  61  84 E3        29.94S
PIERRE         CLOUDY    62  57  83 W10       29.91R
RAPID CITY     PTSUNNY   68  49  50 N8        30.04R
BISMARCK       SUNNY     64  55  72 N7        29.96R
KANSAS CITY    PTSUNNY   69  65  86 S7        29.96F
HILL CITY      SUNNY     69  61  75 SW7       30.03S
WICHITA        CLOUDY    73  65  75 E3        30.00R
DODGE CITY     SUNNY     72  56  57 SW20      30.05R
OKLAHOMA CITY  CLOUDY    76  69  79 W13       30.06R
DALLAS         CLOUDY    79  73  82 S5        30.03R
AMARILLO       LGT RAIN  65  63  93 E14       30.19S
$$




USA.gov is the U.S. government's official web portal to all federal, state and local government web resources and services.